Time,TemperatureF,DewpointF,PressureIn,WindDirection,WindDirectionDegrees,WindSpeedMPH,WindSpeedGustMPH,Humidity,HourlyPrecipIn,Conditions,Clouds,dailyrainin,SoftwareType,DateUTC
2013-06-10 00:04:00,64.4,52.4,29.70,SSW,212,0.0,0.0,65,0.00,,---,0.00,VWS V14.01,2013-06-10 07:04:00,
2013-06-10 00:09:00,64.3,52.3,29.70,South,184,0.0,0.0,65,0.00,,---,0.00,VWS V14.01,2013-06-10 07:09:00,
2013-06-10 00:15:00,64.1,52.9,29.69,SSW,211,0.0,0.0,67,0.00,,---,0.00,VWS V14.01,2013-06-10 07:15:00,
2013-06-10 00:20:00,63.9,52.7,29.70,North,360,3.0,0.0,67,0.00,,---,0.00,VWS V14.01,2013-06-10 07:20:00,
2013-06-10 00:25:00,63.8,52.7,29.70,ENE,73,0.0,0.0,67,0.00,,---,0.00,VWS V14.01,2013-06-10 07:25:00,
2013-06-10 00:30:00,63.6,52.5,29.69,South,177,1.0,0.0,67,0.00,,---,0.00,VWS V14.01,2013-06-10 07:30:00,
2013-06-10 00:35:00,63.4,52.3,29.69,NNE,26,0.0,0.0,67,0.00,,---,0.00,VWS V14.01,2013-06-10 07:35:00,
2013-06-10 00:40:00,63.3,52.2,29.70,NE,55,0.0,0.0,67,0.00,,---,0.00,VWS V14.01,2013-06-10 07:40:00,
2013-06-10 00:45:00,63.2,52.5,29.70,ESE,104,0.0,0.0,68,0.00,,---,0.00,VWS V14.01,2013-06-10 07:45:00,
2013-06-10 00:50:00,63.3,52.6,29.69,NNE,29,0.0,0.0,68,0.00,,---,0.00,VWS V14.01,2013-06-10 07:50:00,
2013-06-10 00:55:00,63.1,52.4,29.69,SE,132,0.0,0.0,68,0.00,,---,0.00,VWS V14.01,2013-06-10 07:55:00,
2013-06-10 01:00:00,63.0,52.3,29.68,ENE,72,0.0,0.0,68,0.00,,---,0.00,VWS V14.01,2013-06-10 08:00:00,
2013-06-10 01:05:00,62.9,52.2,29.68,SSE,148,0.0,0.0,68,0.00,,---,0.00,VWS V14.01,2013-06-10 08:05:00,
2013-06-10 01:10:00,62.7,52.0,29.69,ESE,120,1.0,0.0,68,0.00,,---,0.00,VWS V14.01,2013-06-10 08:10:00,
2013-06-10 01:15:00,62.6,52.3,29.69,East,96,0.0,0.0,69,0.00,,---,0.00,VWS V14.01,2013-06-10 08:15:00,
2013-06-10 01:20:00,62.6,52.3,29.69,ENE,67,1.0,0.0,69,0.00,,---,0.00,VWS V14.01,2013-06-10 08:20:00,
2013-06-10 01:25:00,62.5,52.2,29.69,ENE,59,0.0,0.0,69,0.00,,---,0.00,VWS V14.01,2013-06-10 08:25:00,
2013-06-10 01:30:00,62.3,52.0,29.69,SE,139,0.0,0.0,69,0.00,,---,0.00,VWS V14.01,2013-06-10 08:30:00,
2013-06-10 01:36:00,62.1,52.2,29.69,ENE,67,0.0,0.0,70,0.00,,---,0.00,VWS V14.01,2013-06-10 08:36:00,
2013-06-10 01:41:00,61.9,52.4,29.69,East,88,0.0,0.0,71,0.00,,---,0.00,VWS V14.01,2013-06-10 08:41:00,
2013-06-10 01:46:00,61.7,52.2,29.69,NE,56,0.0,0.0,71,0.00,,---,0.00,VWS V14.01,2013-06-10 08:46:00,
2013-06-10 01:51:00,61.4,52.3,29.69,SSW,196,0.0,0.0,72,0.00,,---,0.00,VWS V14.01,2013-06-10 08:51:00,
2013-06-10 01:56:00,61.2,52.5,29.69,East,83,1.0,0.0,73,0.00,,---,0.00,VWS V14.01,2013-06-10 08:56:00,
2013-06-10 02:01:00,60.8,52.5,29.69,ESE,119,0.0,0.0,74,0.00,,---,0.00,VWS V14.01,2013-06-10 09:01:00,
2013-06-10 02:06:00,60.5,52.2,29.69,ESE,119,0.0,0.0,74,0.00,,---,0.00,VWS V14.01,2013-06-10 09:06:00,
2013-06-10 02:11:00,60.3,52.0,29.69,NNE,21,0.0,0.0,74,0.00,,---,0.00,VWS V14.01,2013-06-10 09:11:00,
2013-06-10 02:16:00,60.0,52.1,29.69,ENE,75,0.0,0.0,75,0.00,,---,0.00,VWS V14.01,2013-06-10 09:16:00,
2013-06-10 02:21:00,59.7,51.8,29.69,SSE,155,0.0,0.0,75,0.00,,---,0.00,VWS V14.01,2013-06-10 09:21:00,
2013-06-10 02:26:00,59.5,51.9,29.69,East,92,0.0,0.0,76,0.00,,---,0.00,VWS V14.01,2013-06-10 09:26:00,
2013-06-10 02:32:00,59.3,51.8,29.69,SE,142,0.0,0.0,76,0.00,,---,0.00,VWS V14.01,2013-06-10 09:32:00,
2013-06-10 02:37:00,59.2,51.7,29.70,ESE,102,0.0,0.0,76,0.00,,---,0.00,VWS V14.01,2013-06-10 09:37:00,
2013-06-10 02:42:00,59.1,51.9,29.69,ESE,102,0.0,0.0,77,0.00,,---,0.00,VWS V14.01,2013-06-10 09:42:00,
2013-06-10 02:47:00,59.0,51.8,29.70,ESE,102,0.0,0.0,77,0.00,,---,0.00,VWS V14.01,2013-06-10 09:47:00,
2013-06-10 02:52:00,58.9,51.7,29.70,ESE,102,0.0,0.0,77,0.00,,---,0.00,VWS V14.01,2013-06-10 09:52:00,
2013-06-10 02:57:00,59.2,52.0,29.69,ESE,102,0.0,0.0,77,0.00,,---,0.00,VWS V14.01,2013-06-10 09:57:00,
2013-06-10 03:02:00,59.2,51.7,29.69,SE,132,0.0,0.0,76,0.00,,---,0.00,VWS V14.01,2013-06-10 10:02:00,
2013-06-10 03:07:00,59.1,51.9,29.69,SE,132,0.0,0.0,77,0.00,,---,0.00,VWS V14.01,2013-06-10 10:07:00,
2013-06-10 03:12:00,59.0,51.8,29.69,NNW,340,0.0,0.0,77,0.00,,---,0.00,VWS V14.01,2013-06-10 10:12:00,
2013-06-10 03:17:00,58.8,51.6,29.69,NNE,29,0.0,0.0,77,0.00,,---,0.00,VWS V14.01,2013-06-10 10:17:00,
2013-06-10 03:22:00,58.7,51.5,29.69,SW,234,0.0,0.0,77,0.00,,---,0.00,VWS V14.01,2013-06-10 10:22:00,
2013-06-10 03:27:00,58.7,51.9,29.69,WSW,248,3.0,0.0,78,0.00,,---,0.00,VWS V14.01,2013-06-10 10:27:00,
2013-06-10 03:32:00,58.5,51.7,29.69,SSE,155,0.0,0.0,78,0.00,,---,0.00,VWS V14.01,2013-06-10 10:32:00,
2013-06-10 03:37:00,58.3,51.5,29.69,ENE,76,0.0,0.0,78,0.00,,---,0.00,VWS V14.01,2013-06-10 10:37:00,
2013-06-10 03:42:00,58.1,51.6,29.69,South,183,0.0,0.0,79,0.00,,---,0.00,VWS V14.01,2013-06-10 10:42:00,
2013-06-10 03:47:00,58.0,51.9,29.69,SSW,194,0.0,0.0,80,0.00,,---,0.00,VWS V14.01,2013-06-10 10:47:00,
2013-06-10 03:53:00,57.7,51.6,29.69,ESE,118,0.0,0.0,80,0.00,,---,0.00,VWS V14.01,2013-06-10 10:53:00,
2013-06-10 03:58:00,57.5,51.4,29.69,SE,138,0.0,0.0,80,0.00,,---,0.00,VWS V14.01,2013-06-10 10:58:00,
2013-06-10 04:03:00,57.4,51.6,29.69,NE,53,0.0,0.0,81,0.00,,---,0.00,VWS V14.01,2013-06-10 11:03:00,
2013-06-10 04:08:00,57.3,51.5,29.69,SSE,153,0.0,0.0,81,0.00,,---,0.00,VWS V14.01,2013-06-10 11:08:00,
2013-06-10 04:13:00,57.3,51.9,29.69,ESE,108,0.0,0.0,82,0.00,,---,0.00,VWS V14.01,2013-06-10 11:13:00,
2013-06-10 04:18:00,57.2,51.8,29.69,SSE,159,0.0,0.0,82,0.00,,---,0.00,VWS V14.01,2013-06-10 11:18:00,
2013-06-10 04:23:00,57.2,51.4,29.69,NE,44,0.0,0.0,81,0.00,,---,0.00,VWS V14.01,2013-06-10 11:23:00,
2013-06-10 04:28:00,57.2,51.4,29.68,NNW,336,0.0,0.0,81,0.00,,---,0.00,VWS V14.01,2013-06-10 11:28:00,
2013-06-10 04:33:00,57.2,51.4,29.69,ENE,69,0.0,0.0,81,0.00,,---,0.00,VWS V14.01,2013-06-10 11:33:00,
2013-06-10 04:38:00,57.2,51.8,29.69,South,172,1.0,0.0,82,0.00,,---,0.00,VWS V14.01,2013-06-10 11:38:00,
2013-06-10 04:43:00,57.2,51.8,29.68,NNE,27,0.0,0.0,82,0.00,,---,0.00,VWS V14.01,2013-06-10 11:43:00,
2013-06-10 04:48:00,57.2,51.4,29.68,WSW,255,0.0,0.0,81,0.00,,---,0.00,VWS V14.01,2013-06-10 11:48:00,
2013-06-10 04:53:00,57.2,51.4,29.68,South,177,0.0,0.0,81,0.00,,---,0.00,VWS V14.01,2013-06-10 11:53:00,
2013-06-10 04:58:00,57.1,51.7,29.68,North,360,0.0,0.0,82,0.00,,---,0.00,VWS V14.01,2013-06-10 11:58:00,
2013-06-10 05:04:00,57.1,51.7,29.69,ESE,117,0.0,0.0,82,0.00,,---,0.00,VWS V14.01,2013-06-10 12:04:00,
2013-06-10 05:09:00,57.0,51.6,29.69,ENE,69,0.0,0.0,82,0.00,,---,0.00,VWS V14.01,2013-06-10 12:09:00,
2013-06-10 05:14:00,56.9,51.5,29.69,WNW,299,0.0,0.0,82,0.00,,---,0.00,VWS V14.01,2013-06-10 12:14:00,
2013-06-10 05:19:00,56.9,51.5,29.69,NE,36,0.0,0.0,82,0.00,,---,0.00,VWS V14.01,2013-06-10 12:19:00,
2013-06-10 05:24:00,56.9,51.5,29.70,SE,124,2.0,0.0,82,0.00,,---,0.00,VWS V14.01,2013-06-10 12:24:00,
2013-06-10 05:29:00,56.9,51.8,29.70,NW,308,0.0,0.0,83,0.00,,---,0.00,VWS V14.01,2013-06-10 12:29:00,
2013-06-10 05:34:00,56.9,51.8,29.70,ENE,61,1.0,0.0,83,0.00,,---,0.00,VWS V14.01,2013-06-10 12:34:00,
2013-06-10 05:39:00,56.9,51.8,29.71,NE,53,1.0,0.0,83,0.00,,---,0.00,VWS V14.01,2013-06-10 12:39:00,
2013-06-10 05:44:00,57.0,51.9,29.71,North,355,1.0,0.0,83,0.00,,---,0.00,VWS V14.01,2013-06-10 12:44:00,
2013-06-10 05:49:00,57.0,51.9,29.71,WNW,286,0.0,0.0,83,0.00,,---,0.00,VWS V14.01,2013-06-10 12:49:00,
2013-06-10 05:54:00,57.0,51.9,29.71,NNW,335,2.0,0.0,83,0.00,,---,0.00,VWS V14.01,2013-06-10 12:54:00,
2013-06-10 05:59:00,57.1,52.0,29.71,SSE,155,0.0,0.0,83,0.00,,---,0.00,VWS V14.01,2013-06-10 12:59:00,
2013-06-10 06:04:00,57.0,51.9,29.71,WSW,248,0.0,0.0,83,0.00,,---,0.00,VWS V14.01,2013-06-10 13:04:00,
2013-06-10 06:09:00,57.1,52.0,29.72,NW,309,0.0,0.0,83,0.00,,---,0.00,VWS V14.01,2013-06-10 13:09:00,
2013-06-10 06:15:00,57.2,52.1,29.72,West,281,0.0,0.0,83,0.00,,---,0.00,VWS V14.01,2013-06-10 13:15:00,
2013-06-10 06:20:00,57.2,52.1,29.72,SSW,213,0.0,0.0,83,0.00,,---,0.00,VWS V14.01,2013-06-10 13:20:00,
2013-06-10 06:25:00,57.3,51.9,29.72,SSE,160,0.0,0.0,82,0.00,,---,0.00,VWS V14.01,2013-06-10 13:25:00,
2013-06-10 06:30:00,57.3,51.9,29.73,ENE,67,0.0,0.0,82,0.00,,---,0.00,VWS V14.01,2013-06-10 13:30:00,
2013-06-10 06:35:00,57.4,52.0,29.73,SE,136,1.0,0.0,82,0.00,,---,0.00,VWS V14.01,2013-06-10 13:35:00,
2013-06-10 06:40:00,57.3,51.9,29.73,ENE,60,0.0,0.0,82,0.00,,---,0.00,VWS V14.01,2013-06-10 13:40:00,
2013-06-10 06:45:00,57.3,51.9,29.73,South,191,0.0,0.0,82,0.00,,---,0.00,VWS V14.01,2013-06-10 13:45:00,
2013-06-10 06:50:00,57.5,52.1,29.73,SSW,202,0.0,0.0,82,0.00,,---,0.00,VWS V14.01,2013-06-10 13:50:00,
2013-06-10 06:55:00,57.6,52.2,29.73,East,98,0.0,0.0,82,0.00,,---,0.00,VWS V14.01,2013-06-10 13:55:00,
2013-06-10 07:00:00,57.7,52.2,29.73,ESE,107,1.0,0.0,82,0.00,,---,0.00,VWS V14.01,2013-06-10 14:00:00,
2013-06-10 07:05:00,57.8,52.0,29.73,WNW,289,0.0,0.0,81,0.00,,---,0.00,VWS V14.01,2013-06-10 14:05:00,
2013-06-10 07:10:00,57.8,52.3,29.73,SE,136,0.0,0.0,82,0.00,,---,0.00,VWS V14.01,2013-06-10 14:10:00,
2013-06-10 07:15:00,57.9,52.1,29.73,ESE,103,0.0,0.0,81,0.00,,---,0.00,VWS V14.01,2013-06-10 14:15:00,
2013-06-10 07:20:00,58.0,52.2,29.73,ESE,116,0.0,0.0,81,0.00,,---,0.00,VWS V14.01,2013-06-10 14:20:00,
2013-06-10 07:25:00,58.1,52.3,29.73,SE,138,0.0,0.0,81,0.00,,---,0.00,VWS V14.01,2013-06-10 14:25:00,
2013-06-10 07:31:00,58.2,52.4,29.73,North,350,0.0,0.0,81,0.00,,---,0.00,VWS V14.01,2013-06-10 14:31:00,
2013-06-10 07:36:00,58.4,52.3,29.73,NNE,32,0.0,0.0,80,0.00,,---,0.00,VWS V14.01,2013-06-10 14:36:00,
2013-06-10 07:41:00,58.6,52.5,29.73,WNW,298,0.0,0.0,80,0.00,,---,0.00,VWS V14.01,2013-06-10 14:41:00,
2013-06-10 07:46:00,58.7,52.6,29.74,SW,234,0.0,0.0,80,0.00,,---,0.00,VWS V14.01,2013-06-10 14:46:00,
2013-06-10 07:51:00,58.8,52.7,29.74,WSW,237,0.0,0.0,80,0.00,,---,0.00,VWS V14.01,2013-06-10 14:51:00,
2013-06-10 07:56:00,59.0,52.8,29.74,ESE,121,0.0,0.0,80,0.00,,---,0.00,VWS V14.01,2013-06-10 14:56:00,
2013-06-10 08:02:00,59.2,52.7,29.75,SSW,211,0.0,0.0,79,0.00,,---,0.00,VWS V14.01,2013-06-10 15:02:00,
2013-06-10 08:07:00,59.3,52.8,29.74,NE,44,0.0,0.0,79,0.00,,---,0.00,VWS V14.01,2013-06-10 15:07:00,
2013-06-10 08:12:00,59.5,52.6,29.75,North,360,0.0,0.0,78,0.00,,---,0.00,VWS V14.01,2013-06-10 15:12:00,
2013-06-10 08:17:00,59.7,52.8,29.75,ESE,119,0.0,0.0,78,0.00,,---,0.00,VWS V14.01,2013-06-10 15:17:00,
2013-06-10 08:22:00,59.9,52.7,29.75,SE,128,1.0,0.0,77,0.00,,---,0.00,VWS V14.01,2013-06-10 15:22:00,
2013-06-10 08:27:00,60.1,52.9,29.76,NW,309,2.0,0.0,77,0.00,,---,0.00,VWS V14.01,2013-06-10 15:27:00,
2013-06-10 08:32:00,60.2,53.0,29.75,NNW,342,0.0,0.0,77,0.00,,---,0.00,VWS V14.01,2013-06-10 15:32:00,
2013-06-10 08:37:00,60.3,53.1,29.75,NE,37,0.0,0.0,77,0.00,,---,0.00,VWS V14.01,2013-06-10 15:37:00,
2013-06-10 08:42:00,60.2,52.6,29.75,ENE,76,0.0,0.0,76,0.00,,---,0.00,VWS V14.01,2013-06-10 15:42:00,
2013-06-10 08:47:00,60.4,53.2,29.75,ESE,109,0.0,0.0,77,0.00,,---,0.00,VWS V14.01,2013-06-10 15:47:00,
2013-06-10 08:52:00,60.6,53.4,29.75,East,90,0.0,0.0,77,0.00,,---,0.00,VWS V14.01,2013-06-10 15:52:00,
2013-06-10 08:57:00,60.9,53.3,29.75,SE,141,1.0,0.0,76,0.00,,---,0.00,VWS V14.01,2013-06-10 15:57:00,
2013-06-10 09:02:00,61.1,53.5,29.75,North,360,4.0,0.0,76,0.00,,---,0.00,VWS V14.01,2013-06-10 16:02:00,
2013-06-10 09:07:00,61.3,53.3,29.76,NW,315,2.0,0.0,75,0.00,,---,0.00,VWS V14.01,2013-06-10 16:07:00,
2013-06-10 09:12:00,61.4,53.0,29.76,SE,146,0.0,0.0,74,0.00,,---,0.00,VWS V14.01,2013-06-10 16:12:00,
2013-06-10 09:17:00,61.4,53.4,29.76,North,349,0.0,0.0,75,0.00,,---,0.00,VWS V14.01,2013-06-10 16:17:00,
2013-06-10 09:23:00,61.7,53.7,29.77,NW,317,0.0,0.0,75,0.00,,---,0.00,VWS V14.01,2013-06-10 16:23:00,
2013-06-10 09:28:00,62.0,53.6,29.77,West,266,2.0,0.0,74,0.00,,---,0.00,VWS V14.01,2013-06-10 16:28:00,
2013-06-10 09:33:00,62.2,54.2,29.77,West,281,2.0,0.0,75,0.00,,---,0.00,VWS V14.01,2013-06-10 16:33:00,
2013-06-10 09:38:00,62.5,54.1,29.77,NW,312,0.0,0.0,74,0.00,,---,0.00,VWS V14.01,2013-06-10 16:38:00,
2013-06-10 09:43:00,62.9,53.8,29.77,West,263,1.0,0.0,72,0.00,,---,0.00,VWS V14.01,2013-06-10 16:43:00,
2013-06-10 09:48:00,63.0,53.8,29.77,ESE,103,0.0,0.0,72,0.00,,---,0.00,VWS V14.01,2013-06-10 16:48:00,
2013-06-10 09:53:00,63.3,54.5,29.77,SE,140,1.0,0.0,73,0.00,,---,0.00,VWS V14.01,2013-06-10 16:53:00,
2013-06-10 09:58:00,63.6,53.7,29.76,ESE,105,0.0,0.0,70,0.00,,---,0.00,VWS V14.01,2013-06-10 16:58:00,
2013-06-10 10:03:00,63.9,53.9,29.76,NNW,338,0.0,0.0,70,0.00,,---,0.00,VWS V14.01,2013-06-10 17:03:00,
2013-06-10 10:08:00,63.9,54.3,29.77,South,180,3.0,0.0,71,0.00,,---,0.00,VWS V14.01,2013-06-10 17:08:00,
2013-06-10 10:14:00,64.0,54.4,29.77,NW,326,4.0,0.0,71,0.00,,---,0.00,VWS V14.01,2013-06-10 17:14:00,
2013-06-10 10:19:00,64.0,54.4,29.77,NNW,334,1.0,0.0,71,0.00,,---,0.00,VWS V14.01,2013-06-10 17:19:00,
2013-06-10 10:24:00,63.8,54.6,29.78,North,355,2.0,0.0,72,0.00,,---,0.00,VWS V14.01,2013-06-10 17:24:00,
2013-06-10 10:29:00,64.0,54.8,29.78,NNE,16,5.0,0.0,72,0.00,,---,0.00,VWS V14.01,2013-06-10 17:29:00,
2013-06-10 10:34:00,64.4,54.4,29.78,West,279,3.0,0.0,70,0.00,,---,0.00,VWS V14.01,2013-06-10 17:34:00,
2013-06-10 10:39:00,64.5,54.9,29.79,NNW,342,2.0,0.0,71,0.00,,---,0.00,VWS V14.01,2013-06-10 17:39:00,
2013-06-10 10:44:00,64.7,54.7,29.78,North,360,0.0,0.0,70,0.00,,---,0.00,VWS V14.01,2013-06-10 17:44:00,
2013-06-10 10:49:00,64.9,54.5,29.79,NNW,330,0.0,0.0,69,0.00,,---,0.00,VWS V14.01,2013-06-10 17:49:00,
2013-06-10 10:54:00,65.2,54.8,29.79,East,86,0.0,0.0,69,0.00,,---,0.00,VWS V14.01,2013-06-10 17:54:00,
2013-06-10 10:59:00,65.2,54.8,29.79,East,88,1.0,0.0,69,0.00,,---,0.00,VWS V14.01,2013-06-10 17:59:00,
2013-06-10 11:04:00,65.3,54.5,29.79,North,9,2.0,0.0,68,0.00,,---,0.00,VWS V14.01,2013-06-10 18:04:00,
2013-06-10 11:09:00,65.6,54.8,29.79,SSW,201,2.0,0.0,68,0.00,,---,0.00,VWS V14.01,2013-06-10 18:09:00,
2013-06-10 11:14:00,65.9,55.0,29.79,North,11,0.0,0.0,68,0.00,,---,0.00,VWS V14.01,2013-06-10 18:14:00,
2013-06-10 11:19:00,66.6,54.9,29.80,NW,319,2.0,0.0,66,0.00,,---,0.00,VWS V14.01,2013-06-10 18:19:00,
2013-06-10 11:25:00,67.0,54.9,29.80,NW,310,1.0,0.0,65,0.00,,---,0.00,VWS V14.01,2013-06-10 18:25:00,
2013-06-10 11:30:00,67.0,54.9,29.80,NNW,341,2.0,0.0,65,0.00,,---,0.00,VWS V14.01,2013-06-10 18:30:00,
2013-06-10 11:35:00,67.1,55.0,29.80,WNW,299,1.0,0.0,65,0.00,,---,0.00,VWS V14.01,2013-06-10 18:35:00,
2013-06-10 11:40:00,67.6,54.6,29.81,WNW,297,4.0,0.0,63,0.00,,---,0.00,VWS V14.01,2013-06-10 18:40:00,
2013-06-10 11:45:00,68.0,55.0,29.80,West,262,2.0,0.0,63,0.00,,---,0.00,VWS V14.01,2013-06-10 18:45:00,
2013-06-10 11:50:00,67.8,54.3,29.80,West,280,0.0,0.0,62,0.00,,---,0.00,VWS V14.01,2013-06-10 18:50:00,
2013-06-10 11:55:00,67.6,54.6,29.80,NE,52,0.0,0.0,63,0.00,,---,0.00,VWS V14.01,2013-06-10 18:55:00,
2013-06-10 12:00:00,67.5,54.5,29.80,NW,320,1.0,0.0,63,0.00,,---,0.00,VWS V14.01,2013-06-10 19:00:00,
2013-06-10 12:05:00,67.3,54.3,29.80,SSW,205,0.0,0.0,63,0.00,,---,0.00,VWS V14.01,2013-06-10 19:05:00,
2013-06-10 12:10:00,67.2,54.2,29.80,NW,314,0.0,0.0,63,0.00,,---,0.00,VWS V14.01,2013-06-10 19:10:00,
2013-06-10 12:15:00,67.1,54.5,29.80,NNW,345,1.0,0.0,64,0.00,,---,0.00,VWS V14.01,2013-06-10 19:15:00,
2013-06-10 12:20:00,67.4,54.4,29.79,NW,320,0.0,0.0,63,0.00,,---,0.00,VWS V14.01,2013-06-10 19:20:00,
2013-06-10 12:26:00,67.9,54.4,29.79,NNE,28,0.0,0.0,62,0.00,,---,0.00,VWS V14.01,2013-06-10 19:26:00,
2013-06-10 12:31:00,68.4,54.4,29.80,West,270,1.0,0.0,61,0.00,,---,0.00,VWS V14.01,2013-06-10 19:31:00,
2013-06-10 12:36:00,68.4,55.3,29.80,NE,34,1.0,0.0,63,0.00,,---,0.00,VWS V14.01,2013-06-10 19:36:00,
2013-06-10 12:41:00,69.1,53.7,29.80,WNW,285,2.0,0.0,58,0.00,,---,0.00,VWS V14.01,2013-06-10 19:41:00,
2013-06-10 12:46:00,69.4,54.5,29.80,NW,309,2.0,0.0,59,0.00,,---,0.00,VWS V14.01,2013-06-10 19:46:00,
2013-06-10 12:51:00,69.5,53.6,29.80,NNW,344,1.0,0.0,57,0.00,,---,0.00,VWS V14.01,2013-06-10 19:51:00,
2013-06-10 12:56:00,69.6,54.2,29.80,NW,309,1.0,0.0,58,0.00,,---,0.00,VWS V14.01,2013-06-10 19:56:00,
2013-06-10 13:01:00,70.1,54.2,29.79,NNE,16,0.0,0.0,57,0.00,,---,0.00,VWS V14.01,2013-06-10 20:01:00,
2013-06-10 13:06:00,70.7,54.2,29.80,NNE,24,1.0,0.0,56,0.00,,---,0.00,VWS V14.01,2013-06-10 20:06:00,
2013-06-10 13:11:00,71.4,54.9,29.79,NNW,344,1.0,0.0,56,0.00,,---,0.00,VWS V14.01,2013-06-10 20:11:00,
2013-06-10 13:16:00,72.2,54.1,29.79,East,81,0.0,0.0,53,0.00,,---,0.00,VWS V14.01,2013-06-10 20:16:00,
2013-06-10 13:21:00,72.9,54.8,29.78,ENE,57,1.0,0.0,53,0.00,,---,0.00,VWS V14.01,2013-06-10 20:21:00,
2013-06-10 13:26:00,73.3,55.2,29.78,SSE,168,0.0,0.0,53,0.00,,---,0.00,VWS V14.01,2013-06-10 20:26:00,
2013-06-10 13:31:00,74.1,54.8,29.79,NNW,336,0.0,0.0,51,0.00,,---,0.00,VWS V14.01,2013-06-10 20:31:00,
2013-06-10 13:37:00,75.0,55.1,29.79,North,349,1.0,0.0,50,0.00,,---,0.00,VWS V14.01,2013-06-10 20:37:00,
2013-06-10 13:42:00,74.9,53.9,29.79,ENE,68,0.0,0.0,48,0.00,,---,0.00,VWS V14.01,2013-06-10 20:42:00,
2013-06-10 13:47:00,74.9,53.9,29.79,NNE,33,0.0,0.0,48,0.00,,---,0.00,VWS V14.01,2013-06-10 20:47:00,
2013-06-10 13:52:00,75.2,53.0,29.79,WNW,292,2.0,0.0,46,0.00,,---,0.00,VWS V14.01,2013-06-10 20:52:00,
2013-06-10 13:57:00,75.4,53.8,29.79,NNE,13,0.0,0.0,47,0.00,,---,0.00,VWS V14.01,2013-06-10 20:57:00,
2013-06-10 14:02:00,75.8,54.2,29.79,South,184,2.0,0.0,47,0.00,,---,0.00,VWS V14.01,2013-06-10 21:02:00,
2013-06-10 14:07:00,75.8,54.2,29.79,WSW,240,2.0,0.0,47,0.00,,---,0.00,VWS V14.01,2013-06-10 21:07:00,
2013-06-10 14:12:00,75.7,54.1,29.79,West,272,3.0,0.0,47,0.00,,---,0.00,VWS V14.01,2013-06-10 21:12:00,
2013-06-10 14:17:00,75.4,53.2,29.79,WNW,294,1.0,0.0,46,0.00,,---,0.00,VWS V14.01,2013-06-10 21:17:00,
2013-06-10 14:22:00,75.2,53.6,29.79,South,171,0.0,0.0,47,0.00,,---,0.00,VWS V14.01,2013-06-10 21:22:00,
2013-06-10 14:27:00,74.9,52.8,29.79,NNE,13,1.0,0.0,46,0.00,,---,0.00,VWS V14.01,2013-06-10 21:27:00,
2013-06-10 14:32:00,74.8,53.8,29.79,WSW,237,0.0,0.0,48,0.00,,---,0.00,VWS V14.01,2013-06-10 21:32:00,
2013-06-10 14:37:00,74.7,53.2,29.79,East,92,0.0,0.0,47,0.00,,---,0.00,VWS V14.01,2013-06-10 21:37:00,
2013-06-10 14:42:00,74.7,53.2,29.79,West,278,4.0,0.0,47,0.00,,---,0.00,VWS V14.01,2013-06-10 21:42:00,
2013-06-10 14:47:00,74.3,52.8,29.79,SSE,150,0.0,0.0,47,0.00,,---,0.00,VWS V14.01,2013-06-10 21:47:00,
2013-06-10 14:53:00,74.1,53.2,29.79,SSE,148,1.0,0.0,48,0.00,,---,0.00,VWS V14.01,2013-06-10 21:53:00,
2013-06-10 14:58:00,74.0,52.5,29.80,West,279,0.0,0.0,47,0.00,,---,0.00,VWS V14.01,2013-06-10 21:58:00,
2013-06-10 15:02:00,74.1,53.2,29.79,WNW,302,2.0,0.0,48,0.00,,---,0.00,VWS V14.01,2013-06-10 22:02:00,
2013-06-10 15:08:00,73.9,53.6,29.80,WNW,295,0.0,0.0,49,0.00,,---,0.00,VWS V14.01,2013-06-10 22:08:00,
2013-06-10 15:13:00,73.1,53.9,29.80,West,261,2.0,0.0,51,0.00,,---,0.00,VWS V14.01,2013-06-10 22:13:00,
2013-06-10 15:18:00,72.7,54.1,29.80,WNW,297,2.0,0.0,52,0.00,,---,0.00,VWS V14.01,2013-06-10 22:18:00,
2013-06-10 15:23:00,72.7,54.1,29.80,West,262,4.0,0.0,52,0.00,,---,0.00,VWS V14.01,2013-06-10 22:23:00,
2013-06-10 15:28:00,72.6,54.5,29.80,NNW,348,0.0,0.0,53,0.00,,---,0.00,VWS V14.01,2013-06-10 22:28:00,
2013-06-10 15:33:00,72.9,54.3,29.80,WNW,288,0.0,0.0,52,0.00,,---,0.00,VWS V14.01,2013-06-10 22:33:00,
2013-06-10 15:38:00,72.4,53.8,29.80,NNW,329,0.0,0.0,52,0.00,,---,0.00,VWS V14.01,2013-06-10 22:38:00,
2013-06-10 15:43:00,72.3,54.2,29.80,WNW,302,1.0,0.0,53,0.00,,---,0.00,VWS V14.01,2013-06-10 22:43:00,
2013-06-10 15:48:00,72.4,54.3,29.80,NE,37,1.0,0.0,53,0.00,,---,0.00,VWS V14.01,2013-06-10 22:48:00,
2013-06-10 15:53:00,72.4,54.3,29.81,NNW,345,1.0,0.0,53,0.00,,---,0.00,VWS V14.01,2013-06-10 22:53:00,
2013-06-10 15:58:00,72.4,53.8,29.81,West,278,3.0,0.0,52,0.00,,---,0.00,VWS V14.01,2013-06-10 22:58:00,
2013-06-10 16:03:00,72.6,55.0,29.81,NNE,26,3.0,0.0,54,0.00,,---,0.00,VWS V14.01,2013-06-10 23:03:00,
2013-06-10 16:08:00,72.7,54.6,29.80,NNE,30,0.0,0.0,53,0.00,,---,0.00,VWS V14.01,2013-06-10 23:08:00,
2013-06-10 16:13:00,72.8,54.2,29.81,NNW,337,0.0,0.0,52,0.00,,---,0.00,VWS V14.01,2013-06-10 23:13:00,
2013-06-10 16:19:00,72.6,54.5,29.80,NW,307,1.0,0.0,53,0.00,,---,0.00,VWS V14.01,2013-06-10 23:19:00,
2013-06-10 16:24:00,72.0,55.0,29.81,WNW,301,2.0,0.0,55,0.00,,---,0.00,VWS V14.01,2013-06-10 23:24:00,
2013-06-10 16:29:00,71.6,54.1,29.81,WNW,284,4.0,0.0,54,0.00,,---,0.00,VWS V14.01,2013-06-10 23:29:00,
2013-06-10 16:34:00,70.8,53.3,29.81,WNW,288,0.0,0.0,54,0.00,,---,0.00,VWS V14.01,2013-06-10 23:34:00,
2013-06-10 16:39:00,70.5,53.6,29.82,West,263,0.0,0.0,55,0.00,,---,0.00,VWS V14.01,2013-06-10 23:39:00,
2013-06-10 16:44:00,70.4,53.5,29.82,West,277,1.0,0.0,55,0.00,,---,0.00,VWS V14.01,2013-06-10 23:44:00,
2013-06-10 16:49:00,70.4,54.0,29.82,NNW,346,0.0,0.0,56,0.00,,---,0.00,VWS V14.01,2013-06-10 23:49:00,
2013-06-10 16:54:00,70.4,54.5,29.82,WSW,252,1.0,0.0,57,0.00,,---,0.00,VWS V14.01,2013-06-10 23:54:00,
2013-06-10 16:59:00,70.5,54.1,29.81,ENE,65,1.0,0.0,56,0.00,,---,0.00,VWS V14.01,2013-06-10 23:59:00,
2013-06-10 17:04:00,70.4,54.0,29.81,WNW,292,1.0,0.0,56,0.00,,---,0.00,VWS V14.01,2013-06-11 00:04:00,
2013-06-10 17:09:00,70.2,53.8,29.81,North,5,1.0,0.0,56,0.00,,---,0.00,VWS V14.01,2013-06-11 00:09:00,
2013-06-10 17:14:00,70.0,54.1,29.81,SSE,165,0.0,0.0,57,0.00,,---,0.00,VWS V14.01,2013-06-11 00:14:00,
2013-06-10 17:19:00,69.8,53.9,29.81,WNW,292,0.0,0.0,57,0.00,,---,0.00,VWS V14.01,2013-06-11 00:19:00,
2013-06-10 17:24:00,69.7,53.8,29.81,NW,306,0.0,0.0,57,0.00,,---,0.00,VWS V14.01,2013-06-11 00:24:00,
2013-06-10 17:29:00,69.6,54.2,29.81,NW,313,0.0,0.0,58,0.00,,---,0.00,VWS V14.01,2013-06-11 00:29:00,
2013-06-10 17:34:00,69.6,54.2,29.81,NNW,333,0.0,0.0,58,0.00,,---,0.00,VWS V14.01,2013-06-11 00:34:00,
2013-06-10 17:39:00,69.7,54.3,29.81,NNW,345,4.0,0.0,58,0.00,,---,0.00,VWS V14.01,2013-06-11 00:39:00,
2013-06-10 17:44:00,70.2,54.3,29.80,NNE,29,0.0,0.0,57,0.00,,---,0.00,VWS V14.01,2013-06-11 00:44:00,
2013-06-10 17:50:00,70.8,54.8,29.80,NW,323,0.0,0.0,57,0.00,,---,0.00,VWS V14.01,2013-06-11 00:50:00,
2013-06-10 17:55:00,71.0,54.0,29.81,NW,322,1.0,0.0,55,0.00,,---,0.00,VWS V14.01,2013-06-11 00:55:00,
2013-06-10 18:00:00,70.7,53.8,29.80,NW,321,0.0,0.0,55,0.00,,---,0.00,VWS V14.01,2013-06-11 01:00:00,
2013-06-10 18:05:00,70.8,53.8,29.80,WNW,302,0.0,0.0,55,0.00,,---,0.00,VWS V14.01,2013-06-11 01:05:00,
2013-06-10 18:10:00,71.1,53.6,29.80,NW,322,1.0,0.0,54,0.00,,---,0.00,VWS V14.01,2013-06-11 01:10:00,
2013-06-10 18:15:00,71.2,53.7,29.80,NNE,22,1.0,0.0,54,0.00,,---,0.00,VWS V14.01,2013-06-11 01:15:00,
2013-06-10 18:20:00,71.3,53.8,29.80,West,276,3.0,0.0,54,0.00,,---,0.00,VWS V14.01,2013-06-11 01:20:00,
2013-06-10 18:25:00,71.3,53.8,29.79,NNW,327,0.0,0.0,54,0.00,,---,0.00,VWS V14.01,2013-06-11 01:25:00,
2013-06-10 18:30:00,71.2,53.2,29.79,WNW,296,0.0,0.0,53,0.00,,---,0.00,VWS V14.01,2013-06-11 01:30:00,
2013-06-10 18:35:00,71.0,53.5,29.80,NW,306,0.0,0.0,54,0.00,,---,0.00,VWS V14.01,2013-06-11 01:35:00,
2013-06-10 18:40:00,70.8,53.3,29.79,NNW,345,0.0,0.0,54,0.00,,---,0.00,VWS V14.01,2013-06-11 01:40:00,
2013-06-10 18:45:00,70.6,53.2,29.80,NNW,327,0.0,0.0,54,0.00,,---,0.00,VWS V14.01,2013-06-11 01:45:00,
2013-06-10 18:50:00,70.4,53.0,29.79,WNW,286,0.0,0.0,54,0.00,,---,0.00,VWS V14.01,2013-06-11 01:50:00,
2013-06-10 18:55:00,70.3,53.4,29.80,NNW,348,0.0,0.0,55,0.00,,---,0.00,VWS V14.01,2013-06-11 01:55:00,
2013-06-10 19:00:00,70.3,53.4,29.80,North,360,1.0,0.0,55,0.00,,---,0.00,VWS V14.01,2013-06-11 02:00:00,
2013-06-10 19:05:00,70.4,53.5,29.80,North,360,0.0,0.0,55,0.00,,---,0.00,VWS V14.01,2013-06-11 02:05:00,
2013-06-10 19:10:00,70.4,53.5,29.80,North,350,0.0,0.0,55,0.00,,---,0.00,VWS V14.01,2013-06-11 02:10:00,
2013-06-10 19:16:00,70.2,53.3,29.80,NNE,13,2.0,0.0,55,0.00,,---,0.00,VWS V14.01,2013-06-11 02:16:00,
2013-06-10 19:21:00,70.1,53.7,29.80,North,5,2.0,0.0,56,0.00,,---,0.00,VWS V14.01,2013-06-11 02:21:00,
2013-06-10 19:26:00,69.8,53.4,29.80,WNW,292,0.0,0.0,56,0.00,,---,0.00,VWS V14.01,2013-06-11 02:26:00,
2013-06-10 19:31:00,69.7,53.3,29.80,NNE,28,0.0,0.0,56,0.00,,---,0.00,VWS V14.01,2013-06-11 02:31:00,
2013-06-10 19:36:00,69.6,53.7,29.80,NNW,330,0.0,0.0,57,0.00,,---,0.00,VWS V14.01,2013-06-11 02:36:00,
2013-06-10 19:41:00,69.4,53.0,29.79,West,276,3.0,0.0,56,0.00,,---,0.00,VWS V14.01,2013-06-11 02:41:00,
2013-06-10 19:46:00,69.0,53.2,29.79,WNW,282,0.0,0.0,57,0.00,,---,0.00,VWS V14.01,2013-06-11 02:46:00,
2013-06-10 19:51:00,68.8,53.4,29.79,WNW,283,0.0,0.0,58,0.00,,---,0.00,VWS V14.01,2013-06-11 02:51:00,
2013-06-10 19:57:00,68.6,52.8,29.79,WNW,283,0.0,0.0,57,0.00,,---,0.00,VWS V14.01,2013-06-11 02:57:00,
2013-06-10 20:02:00,68.4,52.6,29.80,West,277,0.0,0.0,57,0.00,,---,0.00,VWS V14.01,2013-06-11 03:02:00,
2013-06-10 20:07:00,68.2,53.3,29.80,West,277,0.0,0.0,59,0.00,,---,0.00,VWS V14.01,2013-06-11 03:07:00,
2013-06-10 20:12:00,68.0,53.2,29.80,WNW,286,0.0,0.0,59,0.00,,---,0.00,VWS V14.01,2013-06-11 03:12:00,
2013-06-10 20:17:00,67.8,53.4,29.80,WNW,286,0.0,0.0,60,0.00,,---,0.00,VWS V14.01,2013-06-11 03:17:00,
2013-06-10 20:22:00,67.6,53.2,29.80,WNW,286,0.0,0.0,60,0.00,,---,0.00,VWS V14.01,2013-06-11 03:22:00,
2013-06-10 20:27:00,67.2,52.9,29.80,WNW,286,0.0,0.0,60,0.00,,---,0.00,VWS V14.01,2013-06-11 03:27:00,
2013-06-10 20:32:00,66.8,52.5,29.80,WNW,286,0.0,0.0,60,0.00,,---,0.00,VWS V14.01,2013-06-11 03:32:00,
2013-06-10 20:37:00,66.2,52.4,29.80,WNW,285,0.0,0.0,61,0.00,,---,0.00,VWS V14.01,2013-06-11 03:37:00,
2013-06-10 20:42:00,65.6,52.2,29.80,WNW,286,0.0,0.0,62,0.00,,---,0.00,VWS V14.01,2013-06-11 03:42:00,
2013-06-10 20:47:00,65.2,52.3,29.80,WNW,285,0.0,0.0,63,0.00,,---,0.00,VWS V14.01,2013-06-11 03:47:00,
2013-06-10 20:52:00,64.8,52.3,29.80,WNW,286,0.0,0.0,64,0.00,,---,0.00,VWS V14.01,2013-06-11 03:52:00,
2013-06-10 20:57:00,64.4,52.0,29.81,WNW,286,0.0,0.0,64,0.00,,---,0.00,VWS V14.01,2013-06-11 03:57:00,
2013-06-10 21:01:00,64.2,52.2,29.81,WNW,286,0.0,0.0,65,0.00,,---,0.00,VWS V14.01,2013-06-11 04:01:00,
2013-06-10 21:02:00,64.1,52.1,29.81,WNW,286,0.0,0.0,65,0.00,,---,0.00,VWS V14.01,2013-06-11 04:02:00,
2013-06-10 21:05:00,64.0,52.0,29.81,WNW,285,0.0,0.0,65,0.00,,---,0.00,VWS V14.01,2013-06-11 04:05:00,
2013-06-10 21:10:00,63.8,51.8,29.81,WNW,286,0.0,0.0,65,0.00,,---,0.00,VWS V14.01,2013-06-11 04:10:00,
2013-06-10 21:15:00,63.8,51.8,29.81,WNW,285,0.0,0.0,65,0.00,,---,0.00,VWS V14.01,2013-06-11 04:15:00,
2013-06-10 21:20:00,63.8,52.2,29.81,WNW,286,0.0,0.0,66,0.00,,---,0.00,VWS V14.01,2013-06-11 04:20:00,
2013-06-10 21:25:00,64.2,52.6,29.81,WNW,286,0.0,0.0,66,0.00,,---,0.00,VWS V14.01,2013-06-11 04:25:00,
2013-06-10 21:30:00,64.2,52.2,29.81,WNW,286,0.0,0.0,65,0.00,,---,0.00,VWS V14.01,2013-06-11 04:30:00,
2013-06-10 21:35:00,63.9,52.3,29.81,WNW,286,0.0,0.0,66,0.00,,---,0.00,VWS V14.01,2013-06-11 04:35:00,
2013-06-10 21:40:00,63.6,52.5,29.81,WNW,286,0.0,0.0,67,0.00,,---,0.00,VWS V14.01,2013-06-11 04:40:00,
2013-06-10 21:45:00,63.4,53.5,29.81,WNW,286,0.0,0.0,70,0.00,,---,0.00,VWS V14.01,2013-06-11 04:45:00,
2013-06-10 21:50:00,63.3,53.8,29.81,WNW,286,0.0,0.0,71,0.00,,---,0.00,VWS V14.01,2013-06-11 04:50:00,
2013-06-10 21:55:00,63.2,53.7,29.82,WNW,286,0.0,0.0,71,0.00,,---,0.00,VWS V14.01,2013-06-11 04:55:00,
2013-06-10 22:01:00,63.0,53.8,29.82,WNW,285,0.0,0.0,72,0.00,,---,0.00,VWS V14.01,2013-06-11 05:01:00,
2013-06-10 22:06:00,63.3,54.1,29.82,North,355,0.0,0.0,72,0.00,,---,0.00,VWS V14.01,2013-06-11 05:06:00,
2013-06-10 22:11:00,63.2,53.7,29.82,NE,38,0.0,0.0,71,0.00,,---,0.00,VWS V14.01,2013-06-11 05:11:00,
2013-06-10 22:16:00,63.0,53.5,29.82,NE,38,0.0,0.0,71,0.00,,---,0.00,VWS V14.01,2013-06-11 05:16:00,
2013-06-10 22:21:00,63.0,53.5,29.82,NE,38,0.0,0.0,71,0.00,,---,0.00,VWS V14.01,2013-06-11 05:21:00,
2013-06-10 22:26:00,62.9,53.8,29.82,NE,38,0.0,0.0,72,0.00,,---,0.00,VWS V14.01,2013-06-11 05:26:00,
2013-06-10 22:31:00,62.7,53.2,29.82,NE,37,0.0,0.0,71,0.00,,---,0.00,VWS V14.01,2013-06-11 05:31:00,
2013-06-10 22:36:00,62.6,53.5,29.82,NE,38,0.0,0.0,72,0.00,,---,0.00,VWS V14.01,2013-06-11 05:36:00,
2013-06-10 22:41:00,62.5,53.7,29.82,NE,38,0.0,0.0,73,0.00,,---,0.00,VWS V14.01,2013-06-11 05:41:00,
2013-06-10 22:46:00,62.4,53.3,29.82,NE,38,0.0,0.0,72,0.00,,---,0.00,VWS V14.01,2013-06-11 05:46:00,
2013-06-10 22:51:00,62.2,53.1,29.82,NE,37,0.0,0.0,72,0.00,,---,0.00,VWS V14.01,2013-06-11 05:51:00,
2013-06-10 22:57:00,62.0,53.3,29.82,NE,38,0.0,0.0,73,0.00,,---,0.00,VWS V14.01,2013-06-11 05:57:00,
2013-06-10 23:02:00,61.8,53.1,29.82,NE,38,0.0,0.0,73,0.00,,---,0.00,VWS V14.01,2013-06-11 06:02:00,
2013-06-10 23:07:00,61.7,53.0,29.82,NE,45,0.0,0.0,73,0.00,,---,0.00,VWS V14.01,2013-06-11 06:07:00,
2013-06-10 23:12:00,61.5,53.2,29.82,NE,44,0.0,0.0,74,0.00,,---,0.00,VWS V14.01,2013-06-11 06:12:00,
2013-06-10 23:17:00,61.4,53.0,29.82,NE,44,0.0,0.0,74,0.00,,---,0.00,VWS V14.01,2013-06-11 06:17:00,
2013-06-10 23:22:00,61.3,53.0,29.82,NE,44,0.0,0.0,74,0.00,,---,0.00,VWS V14.01,2013-06-11 06:22:00,
2013-06-10 23:27:00,61.2,53.2,29.82,NE,44,0.0,0.0,75,0.00,,---,0.00,VWS V14.01,2013-06-11 06:27:00,
2013-06-10 23:32:00,61.1,53.1,29.82,NE,44,0.0,0.0,75,0.00,,---,0.00,VWS V14.01,2013-06-11 06:32:00,
2013-06-10 23:37:00,61.0,53.0,29.82,NE,44,0.0,0.0,75,0.00,,---,0.00,VWS V14.01,2013-06-11 06:37:00,
2013-06-10 23:42:00,60.8,53.2,29.82,NE,45,0.0,0.0,76,0.00,,---,0.00,VWS V14.01,2013-06-11 06:42:00,
2013-06-10 23:47:00,60.6,53.4,29.82,NE,44,0.0,0.0,77,0.00,,---,0.00,VWS V14.01,2013-06-11 06:47:00,
2013-06-10 23:52:00,60.4,53.5,29.82,NE,44,0.0,0.0,78,0.00,,---,0.00,VWS V14.01,2013-06-11 06:52:00,
2013-06-10 23:57:00,60.4,53.9,29.82,NE,44,0.0,0.0,79,0.00,,---,0.00,VWS V14.01,2013-06-11 06:57:00,